GFSMA_925_temp_096.txt.gz
Temp
18 18 17 17 17 17 17 16 16 16 16 17 17 17 17 16 16 17 19 18 18 17 17 16 15 16 16 16 16 15 15 15 13 14 13 13 12 12 12 12 11 11 11
18 18 16 16 16 16 16 16 17 15 15 14 15 15 15 15 15 15 18 18 17 17 17 16 15 15 16 16 16 15 15 15 14 13 13 12 12 12 11 11 11 11 11
18 17 17 16 16 15 15 16 16 15 15 15 15 16 16 15 14 15 18 17 17 17 17 16 15 15 16 16 15 15 15 14 13 13 12 12 12 11 11 11 11 11 11
18 16 16 16 15 15 14 15 15 15 15 15 15 16 15 15 15 14 17 17 17 16 16 16 15 15 15 16 15 14 14 14 13 13 12 12 11 11 11 11 11 11 11
17 16 16 16 15 14 14 14 14 14 14 14 14 15 15 15 15 14 15 17 17 17 16 15 15 15 14 15 15 14 14 13 13 13 12 12 11 11 11 10 11 11 11
17 17 16 15 14 14 14 14 14 14 14 14 14 14 14 14 14 14 14 16 17 16 16 15 15 14 14 15 14 14 13 12 13 12 13 12 11 11 11 11 11 10 10
17 17 16 15 14 14 14 14 14 14 14 14 14 13 13 14 14 14 15 14 15 16 15 15 14 14 14 14 14 14 13 13 13 12 13 12 11 11 10 11 11 10 10
18 17 16 15 15 14 14 14 14 14 14 14 14 13 12 12 13 13 14 14 14 15 14 14 14 14 14 14 14 14 14 13 13 13 12 12 11 11 10 10 11 10 10
18 17 16 15 15 14 14 14 14 14 14 14 14 14 12 13 12 12 13 13 14 14 14 14 14 14 14 14 14 13 13 13 13 13 12 12 11 11 11 11 11 10 10
17 17 16 16 16 14 14 14 14 14 14 14 13 15 15 14 13 12 12 12 13 13 14 13 13 13 13 13 13 13 13 13 13 13 13 12 12 12 12 11 11 11 11
17 17 16 16 15 14 14 15 14 14 14 13 14 13 13 13 13 13 13 11 12 13 13 13 13 13 13 13 13 13 13 13 13 13 13 13 13 12 12 12 12 12 12
17 16 16 16 15 15 14 14 14 14 13 13 13 14 14 14 12 12 12 12 12 11 13 13 13 13 14 14 13 13 13 13 13 13 13 13 13 13 13 12 13 13 13
15 15 16 15 15 15 14 14 14 14 14 13 13 13 13 13 14 14 13 12 12 11 12 13 13 13 14 14 14 14 14 13 13 13 13 13 13 13 13 13 13 13 13
14 14 15 14 15 14 14 14 14 14 14 13 13 13 13 13 13 13 13 12 11 11 12 13 14 14 14 14 14 15 14 14 14 14 14 14 13 13 13 13 13 13 13
14 14 13 13 14 14 14 14 14 14 13 13 13 13 13 13 12 12 12 13 13 12 12 12 14 15 15 15 15 15 15 15 15 14 14 14 14 14 14 14 13 13 13
13 13 13 13 14 14 14 14 14 13 13 13 13 13 12 12 12 12 12 13 13 13 12 14 14 16 16 15 15 15 15 15 15 14 14 14 14 14 13 13 13 13 13
13 14 14 14 14 14 13 13 13 13 13 13 13 13 12 12 11 11 11 12 12 13 13 12 13 13 15 15 14 14 14 14 13 13 13 13 13 13 13 13 13 13 13
14 14 14 13 13 12 13 12 12 13 12 12 13 13 12 12 11 11 11 12 12 12 13 11 12 12 13 12 13 13 12 12 12 13 13 13 13 12 12 12 12 13 12
13 13 13 12 12 12 12 12 12 13 12 13 13 13 12 12 11 11 11 11 12 13 13 12 11 12 12 12 12 12 11 11 10 10 11 11 11 11 10 10 9 9 10
13 12 12 11 11 12 12 12 12 12 12 12 12 12 12 12 11 11 11 12 12 11 12 12 11 11 11 11 11 11 9 8 7 7 7 7 6 6 6 7 6 6 5
11 11 11 10 11 11 12 12 12 12 12 12 12 12 12 12 12 12 12 11 12 11 10 11 10 10 10 10 10 10 9 7 4 3 4 3 3 3 3 2 2 2 1
9 9 9 9 9 9 10 11 11 11 11 11 11 10 10 11 11 11 11 11 11 10 10 10 10 10 9 9 9 8 6 4 3 2 2 0 1 -0 -1 -0 -1 -1 -1
5 5 5 5 4 5 7 9 10 9 8 7 7 7 8 7 9 10 10 11 10 10 10 10 10 8 7 7 7 6 6 5 1 0 1 -2 -1 -2 -2 -2 -2 -2 -2
0 0 0 0 1 1 3 6 7 5 4 3 3 4 4 4 5 7 6 6 4 5 6 6 6 3 4 4 4 4 4 2 -1 -1 0 -2 -3 -3 -3 -3 -3 -4 -4
-2 -2 -2 -2 -2 -1 1 2 4 3 1 0 0 1 1 1 1 3 4 0 -3 -4 -3 -0 -1 0 0 1 2 2 1 0 -3 -4 -2 -3 -4 -4 -4 -4 -4 -4 -4
-3 -2 -3 -3 -3 -3 -1 0 1 -0 -1 -2 -2 -2 -1 -1 -1 -0 1 -1 -4 -5 -3 -2 -2 -1 -1 -1 -0 0 -0 -1 -4 -5 -4 -4 -4 -4 -4 -5 -5 -5 -4

GFSMA_925_temp_102.txt.gz
Temp
19 21 21 20 20 21 20 20 19 18 19 18 19 18 18 18 19 18 17 17 19 17 17 16 16 16 16 16 16 16 16 16 16 15 15 15 14 14 14 14 13 13 12
19 18 18 18 21 20 19 19 18 18 18 18 18 17 18 18 18 17 16 16 18 17 17 16 16 16 16 16 16 16 16 15 15 15 14 14 14 13 13 13 13 12 12
18 18 18 18 18 19 18 17 17 17 17 17 17 16 17 17 17 16 16 17 18 16 17 16 17 16 16 16 16 16 16 16 15 15 14 14 13 13 13 12 12 12 12
18 17 17 17 17 17 16 16 16 16 16 17 17 16 17 16 15 15 16 17 18 15 15 16 17 17 16 16 16 16 16 16 15 14 14 14 13 13 13 12 12 12 11
17 17 17 17 16 17 16 16 16 16 15 16 17 16 16 16 15 14 15 14 15 15 15 15 16 16 16 16 15 16 16 15 15 15 14 14 13 13 12 12 12 11 11
17 17 17 16 16 16 16 15 15 15 15 16 15 15 15 15 15 14 14 14 15 15 15 16 16 15 15 16 15 15 15 15 15 15 14 13 13 12 12 12 11 11 11
17 16 16 16 16 15 16 15 15 15 15 15 15 14 14 14 14 14 15 13 15 14 15 16 16 17 15 15 15 15 15 15 14 14 13 13 13 12 12 11 11 11 11
16 16 16 15 15 15 15 15 15 14 15 15 14 14 14 13 14 14 14 14 14 14 15 15 16 17 16 15 15 15 15 15 14 14 13 13 13 12 12 11 11 11 11
16 16 15 15 15 15 15 16 15 14 14 14 15 16 14 16 13 13 13 13 14 14 14 15 15 16 16 16 15 14 14 14 14 14 13 13 13 13 12 12 11 11 11
16 15 15 16 16 15 15 15 15 15 15 15 14 16 17 16 16 14 13 14 14 13 14 14 14 14 16 16 16 14 14 14 14 14 14 13 13 13 12 11 11 11 11
16 15 15 16 15 15 15 15 15 16 15 14 14 14 15 15 17 17 14 13 13 13 13 14 13 13 14 15 16 16 14 14 14 13 14 14 13 13 12 12 11 11 11
15 15 15 15 15 15 15 15 15 16 15 15 14 14 15 16 17 16 16 14 14 12 13 13 13 13 14 14 15 15 14 14 14 13 13 13 13 13 12 12 12 12 12
15 15 15 14 16 17 16 15 15 15 15 14 14 14 14 15 16 15 16 15 14 12 12 13 13 13 13 14 14 14 14 14 13 13 13 13 13 13 13 13 13 13 13
16 16 15 15 15 19 18 15 15 15 15 14 14 14 14 14 15 15 16 15 15 13 12 12 12 12 13 13 13 13 13 14 13 13 13 13 13 13 13 13 13 12 12
19 17 15 14 14 14 14 14 15 15 14 14 14 14 14 14 13 14 14 15 16 14 13 12 12 12 13 12 12 12 13 14 13 13 13 13 13 13 13 13 13 12 12
17 16 15 14 14 15 14 15 15 14 14 14 14 14 14 14 13 13 13 13 14 14 14 14 12 12 12 12 12 12 13 13 14 13 13 13 13 13 13 13 12 12 12
15 15 15 14 14 14 14 14 14 14 14 14 13 14 14 13 13 13 13 14 14 15 13 11 12 12 11 12 12 12 13 13 13 13 13 13 13 13 13 12 12 12 12
14 14 15 14 14 14 14 14 14 14 14 13 13 13 13 13 13 13 13 13 13 13 13 12 11 11 12 12 12 13 14 11 12 13 13 13 13 13 13 12 12 12 12
14 13 13 15 15 14 14 13 14 14 13 13 13 13 13 13 13 13 13 12 12 12 12 12 11 11 12 13 13 12 10 10 10 9 11 12 11 12 11 11 11 11 11
13 13 14 13 13 13 13 13 13 13 13 13 14 13 13 13 13 12 12 12 12 11 11 11 11 11 12 12 11 9 6 6 4 6 7 7 7 7 7 8 7 7 7
13 12 12 12 12 12 12 12 12 12 12 12 12 12 12 12 12 12 12 12 11 11 11 11 11 11 12 11 10 8 6 3 2 3 3 3 4 2 2 2 2 2 2
6 9 10 10 10 10 10 11 12 11 11 11 10 10 10 11 11 12 12 12 11 11 11 11 12 12 11 11 11 9 4 3 2 1 2 -1 1 0 -0 0 -0 0 -0
0 0 3 6 6 6 8 10 10 9 9 7 7 6 7 7 7 8 11 11 11 11 11 11 11 11 10 10 10 7 6 5 2 0 2 -2 -1 -1 -2 -2 -2 -2 -3
-0 -0 -1 0 1 1 3 5 6 6 4 3 3 3 3 4 4 5 8 9 7 9 10 11 11 10 10 10 9 9 8 4 1 -0 1 -3 -3 -3 -3 -3 -4 -4 -5
-0 -3 -3 -2 -1 -1 0 2 3 2 0 -0 0 1 1 2 2 4 4 3 2 1 1 4 7 6 6 7 8 8 4 1 -1 -2 -1 -3 -4 -5 -4 -4 -4 -5 -5
-4 -3 -3 -4 -3 -3 -2 -0 -0 -1 -2 -3 -3 -2 -2 -1 0 1 2 -1 -3 -3 -1 -0 0 1 1 2 2 3 2 1 -2 -3 -2 -3 -5 -4 -5 -6 -5 -6 -6

GFSMA_925_temp_105.txt.gz
Temp
23 23 23 24 22 22 21 21 20 20 20 20 20 20 20 19 20 20 20 19 19 19 18 17 16 17 17 17 16 16 16 16 16 16 16 15 15 15 14 14 14 13 12
20 22 23 23 23 22 21 21 21 21 20 20 19 19 19 19 19 19 20 19 18 18 18 18 17 16 16 17 16 16 16 16 16 16 15 15 15 14 14 14 14 13 12
19 22 21 21 22 23 21 21 20 20 19 19 19 19 19 19 19 18 18 18 18 18 18 18 17 16 16 17 17 16 16 16 16 15 15 15 14 14 14 13 13 12 12
20 20 21 19 19 21 20 19 20 19 19 19 19 18 18 18 18 18 17 17 16 16 17 17 16 15 16 16 16 16 16 16 16 15 15 15 15 14 13 13 12 12 12
20 19 21 19 20 20 19 18 19 18 18 19 19 18 18 18 18 17 17 16 15 15 16 16 15 16 14 17 16 16 16 16 15 15 15 14 14 14 13 12 12 12 12
19 19 19 18 18 18 18 17 17 17 17 18 19 17 17 18 17 16 16 15 14 15 15 16 16 16 15 16 17 16 15 15 15 15 15 15 14 13 13 12 12 12 11
19 19 18 18 18 17 18 17 16 16 16 16 16 15 16 16 16 16 15 15 14 14 14 14 16 16 15 15 16 16 15 14 14 15 15 14 14 13 12 12 11 11 11
19 18 18 18 17 17 18 17 16 16 16 16 16 15 15 14 15 16 15 14 13 14 15 15 13 15 15 15 15 15 15 14 14 14 15 14 14 13 12 12 11 11 11
19 18 18 18 17 17 16 16 16 16 16 15 15 16 15 16 15 15 15 14 14 15 15 15 14 14 15 15 15 15 15 14 14 14 15 14 14 13 12 12 11 11 11
19 18 17 17 17 16 16 16 16 16 17 16 15 16 18 19 18 15 14 14 14 13 15 14 14 14 14 16 16 15 15 14 14 14 15 14 13 13 12 12 12 11 11
19 18 17 16 16 16 16 16 16 16 16 16 16 15 17 18 18 19 15 14 14 14 14 14 14 14 14 15 15 15 15 14 14 14 14 14 13 14 13 12 12 11 11
18 17 17 16 16 15 16 17 18 16 17 17 16 16 17 17 17 18 18 16 15 14 14 14 14 14 14 15 15 15 15 15 14 14 14 14 13 13 13 12 12 12 11
16 16 16 16 16 16 17 19 20 16 17 17 16 16 16 17 17 18 18 17 15 13 13 13 14 13 13 14 14 14 15 15 14 14 14 13 13 13 14 13 12 12 12
17 16 16 15 15 15 16 16 16 16 16 16 16 16 16 16 16 16 17 17 15 13 12 13 13 13 13 13 14 14 14 14 14 14 14 13 13 13 13 13 13 13 12
17 16 16 15 16 15 15 15 15 15 16 16 16 16 15 14 15 15 15 15 15 14 13 12 13 13 13 13 14 14 14 14 14 14 13 13 13 13 13 13 13 12 12
18 17 16 15 15 15 15 15 15 15 16 16 16 16 16 15 14 14 14 14 14 14 14 15 13 13 13 12 13 13 13 13 13 13 13 13 13 13 13 13 13 12 12
18 18 17 15 15 15 15 15 15 15 16 16 15 15 15 15 14 14 14 14 13 13 13 15 14 13 12 12 12 12 13 13 12 13 13 13 13 13 13 12 12 12 12
18 17 16 16 16 15 14 15 16 15 15 15 15 14 14 14 14 14 14 13 13 13 14 14 13 12 12 12 12 12 12 12 12 13 13 13 13 12 12 12 12 12 12
15 16 16 16 16 15 15 16 17 13 15 15 15 14 14 14 14 14 13 13 14 14 14 13 12 12 12 12 12 12 11 11 10 12 12 12 12 12 12 12 12 12 12
14 14 15 15 15 14 14 14 14 14 14 14 14 14 13 13 13 13 13 13 13 13 13 12 12 12 12 11 11 9 6 7 6 8 9 9 10 10 10 10 10 9 9
10 11 14 15 15 14 14 14 13 13 13 13 13 13 13 13 13 13 13 13 13 12 12 12 12 12 12 11 9 8 6 4 3 4 4 4 5 6 5 5 5 4 5
3 4 6 7 9 10 12 13 13 13 13 13 12 12 11 11 12 12 12 12 12 12 12 12 11 12 12 10 9 7 4 3 2 1 1 0 2 2 1 2 2 2 2
2 1 0 1 1 5 9 11 12 11 10 9 8 8 8 8 8 9 9 9 11 12 11 11 11 12 11 11 9 6 5 5 2 1 1 -2 -1 -1 -1 -1 -2 -1 -1
-1 -1 -1 -1 -1 -0 3 8 10 7 6 4 4 4 4 4 5 5 6 6 7 8 10 11 11 10 11 11 10 8 6 3 1 -0 1 -3 -2 -3 -2 -3 -3 -3 -3
-4 -4 -2 -2 -2 -2 -1 0 4 3 1 -0 -0 0 1 0 1 3 4 3 2 1 2 5 7 8 10 10 9 8 4 2 -0 -0 0 -3 -4 -4 -4 -4 -4 -4 -5
-4 -5 -5 -4 -4 -3 -3 -2 -1 -1 -2 -3 -3 -3 -3 -1 -0 1 2 1 -1 -2 -0 0 1 3 4 5 6 6 5 4 -2 -2 -1 -3 -4 -4 -5 -5 -5 -5 -5

GFSMA_925_temp_108.txt.gz
Temp
22 22 22 22 21 21 20 20 20 20 20 20 20 20 19 19 19 20 20 20 19 19 19 18 18 17 17 16 17 17 16 17 16 16 16 16 16 15 15 15 14 13 13
22 23 23 23 22 22 22 21 21 21 20 20 20 20 20 19 19 19 19 19 19 19 19 18 18 17 16 16 16 17 16 16 16 16 16 15 15 15 15 14 14 13 12
21 22 23 23 23 22 22 22 21 21 20 20 20 19 19 19 19 19 19 18 18 18 18 18 18 17 16 16 16 17 16 16 16 16 16 15 15 15 14 14 13 13 12
21 20 21 22 22 23 22 21 21 21 20 19 19 19 19 18 18 18 18 18 18 17 18 18 17 17 16 16 15 16 16 16 16 16 16 15 15 14 14 13 13 13 12
20 19 20 21 22 22 21 20 20 20 19 19 19 19 19 18 18 18 18 17 17 17 17 17 17 17 16 15 16 16 16 16 16 16 15 15 15 14 14 13 13 12 12
20 19 19 20 20 20 20 20 19 19 19 19 19 19 18 18 18 17 17 17 16 16 16 16 16 17 17 16 16 16 16 16 16 16 15 15 14 15 14 13 12 12 12
20 19 19 19 19 19 19 18 18 19 18 18 19 18 17 17 17 17 17 16 16 15 15 15 15 16 16 16 16 13 15 15 16 15 15 14 14 15 13 12 12 11 11
22 20 19 19 19 18 18 18 17 17 17 18 17 15 15 15 16 16 16 16 15 14 14 15 15 14 15 14 15 15 15 15 15 14 14 14 14 14 13 12 12 11 11
22 21 19 19 19 18 16 17 17 16 17 16 17 16 14 15 14 16 16 15 15 14 13 14 15 14 14 14 14 14 14 15 15 14 14 14 14 14 13 12 11 11 11
21 21 20 18 18 19 18 17 17 16 17 16 16 16 18 17 15 14 15 15 15 14 14 14 14 15 15 14 14 14 14 15 15 14 14 14 14 14 13 12 12 11 11
21 21 19 18 18 17 17 17 17 16 16 16 16 16 16 17 18 16 14 14 15 14 14 14 15 14 14 14 14 14 15 15 15 14 14 14 14 14 13 12 12 11 11
19 20 20 18 17 17 17 17 18 16 16 17 16 16 16 17 17 16 15 14 14 14 14 14 14 15 14 14 14 15 15 15 15 14 14 14 14 14 13 12 12 11 11
17 18 19 18 17 16 17 17 16 15 16 16 16 16 16 17 17 17 17 15 14 14 14 14 14 14 14 14 14 14 15 14 15 14 14 14 14 13 13 13 12 12 11
15 18 16 19 18 17 16 16 17 16 16 16 17 16 16 16 17 17 17 16 14 13 13 13 13 14 15 14 15 14 14 14 14 14 14 14 14 13 13 13 13 12 12
14 18 17 17 16 17 17 16 14 14 15 16 15 20 16 16 16 17 16 17 15 14 13 13 13 13 13 13 14 14 14 14 14 13 13 13 14 13 13 13 13 13 12
16 18 17 16 16 16 16 15 16 16 16 16 16 15 17 16 16 16 15 15 16 15 13 13 12 13 13 13 13 13 14 14 14 13 13 13 13 13 13 13 13 13 12
17 18 17 16 15 15 15 15 15 15 16 16 17 17 17 15 15 15 15 14 14 14 14 14 14 14 13 13 13 13 13 14 13 13 13 13 13 13 13 13 13 13 12
14 17 17 17 15 15 15 15 15 15 15 15 15 15 17 15 15 15 15 14 14 13 14 13 13 13 13 13 12 13 12 12 13 12 12 13 12 13 13 13 12 12 12
10 14 17 18 15 14 15 14 15 15 16 16 17 14 15 15 14 14 14 14 14 13 13 13 13 13 13 12 12 12 12 12 11 12 12 12 12 12 12 12 12 12 12
6 9 12 16 16 15 14 14 14 14 14 13 14 15 15 14 14 14 14 14 13 13 13 13 12 12 12 12 12 11 9 10 10 10 11 11 11 11 12 12 12 11 11
3 4 5 9 10 13 12 14 14 13 15 14 14 14 14 14 14 14 13 13 13 13 13 13 13 12 12 12 9 8 6 5 4 5 6 8 9 9 9 9 10 10 10
-0 1 1 2 2 4 9 13 14 14 13 13 13 12 12 12 12 12 12 12 12 12 13 13 13 12 12 12 9 7 4 3 2 2 3 2 4 5 4 5 5 6 6
-3 -2 -1 0 -0 1 3 7 13 13 12 10 9 8 8 8 9 10 10 10 10 10 11 12 12 12 12 11 9 6 6 5 2 2 2 -2 1 1 0 0 1 2 3
-4 -4 -4 -3 -2 -2 0 0 2 7 6 4 4 4 4 5 6 7 7 6 6 6 7 8 11 11 11 11 11 9 6 4 2 1 3 -2 -2 -2 -2 -2 -2 -1 -1
-4 -5 -5 -5 -4 -3 -1 -0 -1 -1 -1 -2 -1 -1 1 1 2 3 4 4 2 1 1 2 6 9 10 10 8 7 3 2 0 -0 0 -3 -3 -4 -4 -4 -4 -3 -3
-3 -4 -4 -5 -5 -5 -4 -3 -1 -3 -4 -4 -4 -4 -4 -3 -1 0 2 1 -1 -2 -0 1 2 4 6 6 6 7 6 4 -0 -1 -1 -2 -4 -3 -4 -4 -5 -5 -5

GFSMA_925_temp_111.txt.gz
Temp
21 21 21 21 21 21 20 20 20 20 19 20 20 19 19 19 19 19 19 19 19 20 19 19 19 18 18 18 17 16 17 17 17 17 16 16 16 16 15 15 15 14 14
21 21 21 21 21 21 21 21 20 20 20 20 20 20 19 19 19 19 19 19 19 19 19 19 18 18 18 17 17 16 16 16 16 16 16 16 16 15 15 15 14 14 13
21 21 22 22 22 22 21 21 21 20 20 20 20 20 20 19 19 19 18 19 19 18 19 19 18 18 17 17 16 16 16 16 16 16 16 15 16 15 15 14 14 13 13
21 21 21 22 22 22 21 21 21 20 20 20 20 19 19 19 19 19 18 18 18 18 18 19 18 17 17 17 17 16 16 16 16 16 16 15 15 15 15 14 13 13 12
22 22 21 21 22 21 22 22 21 21 20 20 19 19 19 19 19 18 18 18 17 17 18 18 17 17 17 17 16 16 16 15 16 16 16 15 15 15 14 14 13 13 12
21 21 22 22 22 21 21 20 21 21 20 20 19 19 19 19 18 18 18 18 18 18 17 18 17 17 17 17 17 16 16 15 16 16 16 15 15 14 15 14 13 13 12
20 20 20 21 21 20 20 20 20 19 19 19 18 18 17 18 18 18 18 17 17 17 17 17 16 16 16 16 16 16 16 15 15 15 16 15 15 14 14 15 13 12 12
19 18 20 18 18 19 19 19 20 18 17 18 18 16 15 15 16 17 17 17 17 16 16 16 15 16 16 15 15 15 14 15 15 15 15 15 15 14 14 14 13 12 12
16 17 18 19 18 19 19 19 17 18 16 17 18 16 14 14 13 15 16 17 16 16 16 15 15 15 15 15 15 14 15 15 15 15 15 15 15 14 14 14 13 12 12
12 14 15 19 19 18 19 19 18 17 16 15 16 18 17 16 13 14 14 15 16 16 15 14 14 14 14 14 14 14 15 14 15 15 15 15 15 14 13 14 13 12 12
10 11 14 16 19 18 19 18 17 17 15 16 16 16 16 16 16 13 14 14 14 14 15 14 14 14 15 14 14 14 14 14 14 14 15 15 14 14 13 14 13 12 12
8 10 12 15 18 18 18 17 18 15 15 16 16 16 17 16 16 15 13 12 14 14 15 14 13 13 14 14 13 14 14 14 14 14 14 15 14 14 13 13 13 12 12
7 8 11 14 16 18 18 17 17 18 17 15 15 16 16 16 17 17 16 13 12 14 13 13 13 13 13 14 14 14 14 14 14 14 14 15 14 14 13 13 13 12 12
7 8 9 12 15 18 18 16 16 18 17 16 15 16 16 15 16 17 17 14 13 12 14 14 13 14 14 14 14 14 14 14 14 14 14 14 14 14 14 13 13 13 12
7 9 10 11 14 17 18 15 17 16 16 17 16 15 15 16 16 16 17 17 15 14 13 13 13 13 14 14 14 14 14 14 14 14 14 14 14 14 14 13 13 13 12
5 8 11 12 14 16 18 16 17 17 14 13 15 16 14 16 15 16 17 16 17 15 13 14 12 14 13 13 14 14 14 14 14 15 14 13 13 13 13 13 13 13 13
4 6 11 14 15 16 17 16 16 14 15 14 14 14 14 15 16 14 17 17 16 16 14 13 14 13 13 13 13 14 14 14 14 14 14 13 13 13 13 13 13 13 13
3 4 8 12 16 18 18 18 15 14 14 14 15 15 16 16 16 15 16 16 16 15 15 13 12 12 12 13 13 13 13 13 13 14 13 13 13 12 13 13 13 13 13
1 2 4 8 12 16 16 15 14 15 15 15 14 16 15 15 16 14 14 15 15 14 14 14 13 13 13 13 13 13 12 12 12 13 13 13 12 12 12 12 13 13 12
-1 0 2 4 5 9 12 12 14 14 14 14 14 16 16 16 15 14 14 14 14 13 13 13 13 13 13 13 12 12 11 11 11 11 12 12 12 11 12 12 12 12 12
-2 -2 -1 0 2 2 2 6 12 13 14 13 13 14 14 13 13 13 13 13 14 13 13 13 13 13 13 12 12 10 8 8 7 9 9 10 10 10 10 11 11 11 11
-4 -4 -3 -2 -1 -1 2 7 10 13 12 13 12 12 11 13 13 13 14 13 13 13 13 13 13 12 12 12 11 9 6 4 3 4 6 5 6 9 10 10 10 10 10
-4 -4 -4 -4 -3 -2 0 5 2 4 8 9 10 9 8 8 9 10 11 12 12 12 12 12 12 12 12 12 11 9 8 7 5 4 4 -1 1 2 4 3 7 6 7
-4 -4 -4 -4 -4 -3 -2 1 0 -1 -2 -0 1 3 4 4 6 7 8 7 7 7 8 8 8 10 11 12 12 11 8 5 3 1 3 -2 -1 -1 -0 -0 1 2 1
-4 -4 -4 -4 -4 -4 -4 -2 0 -1 -3 -4 -4 -2 -0 1 1 4 5 5 3 2 2 4 5 6 9 10 10 9 4 3 0 0 1 -1 -2 -3 -3 -3 -2 -0 -0
-4 -5 -5 -5 -5 -4 -4 -5 -4 -4 -4 -4 -4 -4 -4 -3 -1 1 2 1 -1 -2 -0 1 2 3 5 7 6 7 6 4 -0 -0 0 -1 -3 -3 -4 -4 -4 -4 -4

GFSMA_925_temp_114.txt.gz
Temp
21 20 20 21 21 21 20 20 20 19 19 19 19 19 19 19 19 19 19 19 19 19 19 19 19 19 19 18 18 18 17 16 16 17 16 16 16 16 15 16 15 15 14
21 21 20 20 20 20 21 20 20 20 19 19 19 19 19 19 19 19 19 19 18 19 19 19 19 18 18 18 18 18 18 17 16 16 16 16 16 15 15 15 15 15 14
20 21 20 20 21 20 21 20 20 19 19 19 19 19 19 19 19 19 19 19 19 19 19 19 19 18 18 18 18 17 17 17 16 16 16 16 15 15 15 15 14 14 14
20 20 20 20 21 20 20 20 20 19 18 19 19 19 19 19 19 19 19 19 18 19 19 18 19 18 18 17 17 17 16 15 15 16 16 16 15 15 15 15 14 14 13
18 20 21 21 21 20 20 20 19 19 18 18 18 19 19 19 19 18 18 18 18 18 18 18 18 18 18 17 17 16 16 15 15 15 16 16 15 15 15 14 14 14 13
18 17 19 21 21 21 20 19 18 19 19 19 18 18 19 19 19 18 18 18 18 18 18 18 18 18 18 17 16 16 16 16 15 15 16 16 15 15 15 14 14 13 13
16 17 17 17 19 20 20 20 20 17 17 18 17 17 17 18 18 19 18 18 17 17 17 18 17 17 17 17 16 16 16 15 16 15 15 16 16 15 15 14 14 13 13
14 14 14 15 16 17 18 18 19 19 19 18 18 17 16 15 17 18 18 18 17 18 18 18 17 17 16 16 16 16 16 16 15 16 16 15 16 15 15 14 14 14 13
12 12 13 13 14 15 17 18 18 19 19 17 16 14 14 16 14 15 16 17 18 18 18 18 17 16 16 16 15 15 16 16 16 15 15 15 15 15 14 14 13 14 13
10 10 10 12 13 14 15 17 17 17 18 16 15 16 14 14 13 14 14 15 15 17 18 18 17 16 15 15 15 15 15 15 14 15 15 15 15 15 14 14 13 14 13
6 9 9 9 11 13 15 16 16 16 17 15 15 14 14 14 15 13 13 14 14 15 16 17 17 15 14 14 14 14 14 14 14 15 14 15 15 15 14 14 13 14 13
6 6 7 8 9 11 13 15 16 16 16 16 15 16 16 15 15 13 12 13 15 14 14 15 16 15 13 14 14 14 15 14 14 14 14 14 14 15 14 14 13 14 13
5 6 6 7 8 9 11 13 15 15 14 14 15 15 15 16 17 16 15 12 12 14 13 14 15 15 14 14 14 14 14 14 14 13 14 14 14 15 14 14 13 13 13
4 5 5 7 7 9 10 12 14 15 15 14 15 15 14 16 16 16 16 13 12 13 13 13 13 14 13 14 14 15 14 13 14 14 13 14 14 14 14 14 13 13 13
3 3 4 5 7 9 10 11 14 15 15 15 14 15 15 15 17 17 15 16 15 13 14 13 13 13 13 13 14 14 14 14 14 14 14 14 14 14 14 14 13 13 13
2 3 3 4 6 9 11 11 12 14 14 15 16 16 15 15 15 14 15 15 15 14 13 14 14 13 13 13 14 14 14 14 14 14 14 13 13 13 13 13 13 13 13
0 1 2 3 6 8 12 12 12 14 15 15 13 14 15 15 15 14 14 14 14 15 14 12 14 13 13 12 13 13 14 14 14 14 14 13 13 13 13 13 13 13 13
-1 -0 1 2 3 6 11 13 13 14 15 14 14 13 13 14 15 15 15 14 13 13 15 12 12 13 12 13 13 13 12 14 14 14 14 14 14 13 13 13 13 13 13
-2 -2 -1 0 1 2 5 9 13 15 15 14 14 13 13 13 13 14 14 13 13 13 14 15 12 12 12 12 13 13 13 13 13 13 14 14 14 13 13 13 12 12 12
-3 -3 -2 -2 -1 0 1 4 10 13 13 14 14 13 13 14 14 14 15 15 13 13 13 14 13 13 12 12 12 12 12 12 12 13 13 13 13 13 13 13 12 12 12
-4 -4 -3 -3 -2 -1 -1 1 6 10 14 12 14 14 13 13 14 14 15 13 13 13 13 13 13 13 13 13 12 12 11 11 11 11 11 11 11 12 13 12 12 12 12
-4 -4 -4 -3 -3 -3 -2 -0 2 7 8 6 11 12 11 13 14 14 14 13 13 13 13 13 13 13 13 13 12 10 10 6 6 8 9 9 9 9 11 11 12 11 11
-5 -5 -5 -4 -3 -3 -3 -1 -1 0 1 0 0 3 6 6 9 11 13 13 13 13 13 13 13 13 12 13 12 11 9 9 8 9 7 3 4 5 6 9 10 10 10
-5 -5 -5 -5 -4 -3 -4 -3 -2 -1 0 -1 -2 -2 -0 2 3 4 6 9 9 9 10 11 12 11 12 12 11 13 11 7 5 5 5 -1 0 -0 1 2 4 8 10
-6 -5 -6 -5 -5 -4 -4 -4 -4 -4 -3 -2 -2 -3 -3 -2 0 1 3 2 4 4 4 7 7 8 9 10 10 9 7 4 0 1 2 -0 -1 -2 -1 -1 -1 2 4
-7 -7 -6 -6 -6 -5 -4 -4 -4 -4 -4 -4 -4 -4 -3 -4 -4 -1 -0 -1 -2 -1 1 2 3 3 4 6 7 8 8 6 0 -0 1 0 -2 -2 -4 -3 -2 -1 -0

GFSMA_925_temp_117.txt.gz
Temp
19 19 19 19 21 20 20 19 19 19 19 18 19 19 19 19 19 19 19 19 20 20 20 20 20 19 19 19 19 18 18 17 17 16 16 17 16 16 15 15 15 15 15
19 19 19 18 19 20 20 20 20 19 19 19 18 19 19 19 19 19 19 19 19 19 19 19 19 19 19 19 18 18 18 17 17 16 16 16 16 16 15 15 15 15 14
18 18 19 19 20 20 20 20 19 18 18 18 18 18 19 19 19 19 19 19 19 19 19 19 18 18 18 18 18 18 18 17 17 16 16 16 16 16 16 15 15 15 14
15 17 18 18 19 20 21 20 20 18 17 17 17 17 18 18 19 19 18 19 19 19 19 19 19 18 18 18 18 18 17 17 16 16 16 16 16 16 15 15 15 14 14
15 16 15 17 18 18 20 19 18 18 17 17 17 17 18 18 18 19 18 18 18 18 19 19 19 18 18 18 17 17 17 17 16 16 15 15 16 16 15 15 15 14 14
14 15 15 15 15 17 18 17 19 18 18 18 17 17 17 18 19 19 18 18 18 18 18 18 18 18 18 18 17 17 17 16 16 15 15 15 15 16 15 15 15 14 14
14 14 14 15 15 15 17 17 18 18 18 17 17 17 16 16 16 17 18 18 18 18 18 18 18 18 18 18 17 17 16 15 15 15 14 15 15 16 15 15 14 14 13
11 11 12 13 13 14 15 16 17 16 17 18 19 17 16 16 16 16 16 16 18 18 17 17 17 18 17 17 17 17 16 16 15 14 15 15 15 16 15 15 15 14 14
8 8 9 10 11 12 13 15 15 16 16 17 17 17 14 16 15 17 15 15 16 18 18 17 17 18 17 17 17 16 16 15 16 15 15 15 15 15 15 15 15 14 14
7 7 7 7 8 9 10 12 14 15 16 15 15 16 18 16 14 13 14 16 16 17 18 18 18 18 17 16 16 16 16 15 15 15 15 15 16 15 15 15 15 14 13
6 7 6 7 7 8 9 10 12 14 15 16 15 13 12 14 15 13 13 14 15 15 16 18 17 18 18 16 16 15 16 16 15 15 15 16 16 16 15 15 14 14 13
4 5 5 6 6 7 8 9 10 12 14 15 15 16 15 14 13 13 13 15 15 16 15 15 17 17 16 17 16 15 15 15 16 14 15 15 15 14 15 14 14 14 14
3 3 4 4 5 6 7 8 9 10 13 14 14 14 15 16 17 15 15 15 14 14 14 14 14 14 15 16 16 15 14 15 15 15 14 14 14 14 14 14 14 14 14
2 2 3 3 4 5 6 7 9 9 11 13 14 14 14 15 16 16 15 15 13 12 13 14 14 13 14 15 15 14 13 13 14 14 14 13 14 14 14 13 13 14 14
1 1 1 2 3 4 5 7 9 10 11 13 13 13 13 14 14 15 15 15 16 14 14 13 13 13 14 14 15 14 14 13 14 14 13 13 13 13 13 13 13 13 13
-1 -0 0 1 2 3 4 5 7 10 10 13 13 13 13 13 13 14 14 15 15 16 15 14 13 14 13 13 14 13 13 13 14 13 13 13 13 13 13 13 13 13 13
-2 -1 -1 -0 1 1 2 3 6 10 11 12 13 13 13 14 14 14 14 14 14 15 14 13 13 14 14 13 13 12 13 13 14 13 13 13 13 13 13 13 13 13 13
-3 -2 -2 -1 -1 -0 1 1 3 6 11 12 13 13 13 14 15 15 14 14 14 14 14 13 12 13 12 13 13 12 12 12 14 14 13 13 13 13 13 13 13 13 12
-3 -3 -3 -2 -2 -1 -1 -0 1 4 7 12 13 13 15 13 13 14 14 14 13 13 13 14 12 12 12 12 12 12 12 13 13 13 14 13 13 13 13 13 13 13 12
-4 -4 -3 -3 -3 -2 -2 -1 -1 3 6 9 12 13 14 13 13 13 13 13 13 13 13 13 12 12 12 12 12 12 12 12 12 12 12 13 13 13 13 13 13 13 12
-4 -4 -4 -3 -3 -3 -3 -2 -1 -0 1 4 8 9 10 12 14 13 13 13 13 13 13 13 13 13 12 12 12 12 12 12 12 12 12 12 12 12 12 13 12 13 13
-5 -5 -5 -4 -3 -3 -3 -3 -3 -2 -2 -1 0 3 4 5 10 12 13 14 15 13 12 12 13 13 13 12 12 12 10 8 8 10 10 11 11 11 11 11 12 12 11
-6 -6 -6 -5 -4 -3 -3 -4 -4 -3 -3 -3 -2 -0 1 1 2 8 11 12 12 13 14 14 14 14 13 12 12 11 11 10 10 11 10 7 8 8 9 10 11 11 12
-7 -7 -6 -6 -5 -4 -4 -4 -4 -4 -4 -4 -3 -3 -2 -0 0 2 4 6 6 6 8 11 13 12 12 12 12 12 12 10 8 8 7 2 3 4 4 6 9 9 11
-7 -7 -7 -6 -6 -5 -4 -4 -4 -4 -4 -4 -4 -4 -4 -3 -2 1 0 1 1 -1 0 2 5 9 11 11 11 11 9 7 1 3 4 5 0 -0 1 2 3 6 8
-7 -7 -7 -6 -6 -6 -5 -5 -5 -5 -5 -5 -5 -5 -5 -4 -4 -3 -1 -1 -3 -2 -0 0 1 4 7 8 8 8 9 7 2 0 3 4 -1 0 -3 -1 -0 1 3

GFSMA_925_temp_120.txt.gz
Temp
18 18 18 18 18 19 18 19 19 19 19 19 19 18 18 19 19 19 19 19 19 20 20 20 19 19 19 19 18 18 18 17 17 17 17 16 16 17 16 15 15 15 15
17 17 17 18 18 17 19 19 19 18 18 18 18 18 18 19 19 19 19 19 19 19 20 20 19 19 19 19 19 18 18 18 17 17 17 16 16 16 17 15 15 15 15
17 17 17 17 18 17 18 19 19 19 17 18 18 18 18 18 18 19 19 19 19 19 19 19 19 19 19 19 19 18 18 18 17 17 17 16 16 16 16 16 15 15 15
16 17 16 16 17 17 18 19 18 17 17 17 17 18 18 18 19 19 19 18 19 19 19 19 19 19 19 18 18 18 18 18 17 17 16 16 16 15 16 17 15 15 15
15 15 16 16 16 16 17 17 19 18 17 17 17 17 18 17 17 20 19 19 18 18 18 18 18 18 18 18 18 18 18 18 17 17 17 16 17 15 16 16 15 15 15
13 14 14 14 14 15 16 16 17 18 18 17 17 17 17 17 16 16 19 19 19 19 19 18 18 18 18 18 18 18 17 17 17 17 16 16 16 15 16 16 16 15 15
12 12 12 13 12 12 14 15 16 16 15 16 17 17 16 15 15 16 17 18 19 19 19 19 18 18 18 18 18 18 17 17 16 16 16 16 16 15 15 16 16 15 14
9 10 10 10 10 11 12 14 15 16 16 16 16 15 15 17 16 16 17 17 18 18 19 18 18 18 18 18 18 18 17 16 16 16 16 16 16 15 15 15 16 15 14
7 7 7 8 8 8 9 11 12 13 15 16 16 16 15 16 15 15 15 17 17 18 18 18 18 18 18 18 18 18 17 16 16 16 16 15 15 15 14 15 15 15 15
6 6 6 6 7 7 8 8 9 10 12 15 15 16 16 16 15 14 14 15 15 16 17 19 19 18 18 18 18 18 17 17 16 16 16 15 16 15 14 15 15 15 15
3 4 5 5 6 7 7 8 8 9 10 12 14 14 14 14 15 14 14 13 14 15 16 19 19 17 18 18 18 18 17 17 16 16 15 15 15 15 15 15 15 15 15
3 3 3 4 4 5 6 7 8 9 9 10 12 14 15 15 13 14 13 13 15 14 16 17 15 14 16 18 17 17 18 17 17 16 16 15 15 15 15 15 14 15 14
1 1 2 2 3 4 5 5 6 7 8 9 10 13 14 14 16 16 16 14 13 15 15 15 14 14 14 16 15 16 17 17 17 16 16 15 15 14 14 15 15 15 14
-0 0 1 1 2 3 3 5 6 7 8 9 10 11 14 14 14 15 16 15 13 12 13 15 15 14 14 14 14 16 16 16 16 16 15 15 15 14 14 14 14 14 14
-1 -1 -1 0 1 2 2 3 4 6 7 9 10 11 13 14 13 14 14 15 15 15 14 15 14 14 14 14 13 14 15 16 15 16 15 14 14 14 14 14 14 14 14
-2 -2 -2 -1 -0 0 1 1 2 3 4 7 10 11 12 13 13 13 13 14 14 15 15 16 13 15 15 13 13 13 14 14 15 14 13 13 13 14 13 14 13 14 14
-2 -2 -2 -2 -1 -1 -1 -0 0 2 2 5 9 11 12 13 13 13 13 13 13 14 14 16 14 13 13 13 13 13 13 14 14 13 13 14 14 13 13 13 13 13 14
-3 -3 -2 -2 -2 -2 -2 -1 -1 0 2 3 6 10 11 13 13 13 13 13 13 14 14 14 13 12 12 13 14 12 12 13 14 13 13 14 13 13 14 12 13 14 13
-4 -4 -3 -3 -2 -2 -2 -2 -1 -0 0 2 3 6 11 12 13 13 13 13 13 14 14 15 13 12 12 13 12 12 12 12 12 12 13 14 13 13 13 13 13 13 13
-5 -5 -4 -3 -3 -3 -3 -3 -2 -2 -1 -1 0 1 3 4 5 10 13 13 14 13 13 13 14 13 12 12 13 12 12 12 12 12 12 13 13 13 13 12 12 13 12
-6 -6 -5 -4 -3 -3 -3 -3 -3 -3 -3 -2 -2 -1 -0 0 3 6 8 13 13 13 13 13 13 13 12 12 12 12 12 12 12 12 12 12 12 12 13 12 12 12 13
-7 -6 -6 -5 -5 -4 -4 -3 -4 -4 -4 -4 -3 -3 -2 -2 0 3 5 11 12 13 13 13 14 13 13 13 12 12 11 9 9 11 11 11 11 12 12 12 12 12 12
-7 -7 -7 -6 -6 -5 -4 -4 -4 -4 -4 -5 -4 -4 -4 -3 -3 -0 2 2 7 7 8 9 13 13 13 13 12 12 10 11 11 11 11 9 9 10 10 10 10 11 12
-7 -7 -7 -7 -7 -6 -5 -5 -5 -5 -5 -5 -5 -5 -4 -4 -4 -3 -0 0 0 2 2 3 5 8 11 13 13 12 11 10 9 9 9 5 6 7 7 8 9 10 10
-7 -8 -7 -7 -7 -7 -6 -5 -6 -6 -6 -6 -6 -6 -5 -5 -4 -4 -4 -2 -2 -0 -0 1 1 1 4 9 10 12 9 7 1 4 6 9 3 4 4 5 6 8 8
-8 -8 -8 -8 -8 -8 -7 -6 -7 -7 -7 -7 -7 -7 -6 -5 -5 -5 -5 -5 -4 -5 -4 -1 1 2 1 2 4 7 10 9 3 1 6 7 2 3 1 2 4 5 6

GFSMA_925_temp_123.txt.gz
Temp
18 18 17 18 18 18 17 18 18 18 18 18 18 18 18 18 18 18 19 20 19 19 19 19 19 19 19 19 18 18 18 18 18 17 17 17 16 16 17 16 15 15 15
17 17 17 18 18 18 18 17 18 18 18 18 18 18 18 18 18 19 18 19 19 19 19 19 19 18 19 19 19 19 18 18 18 17 17 17 17 16 16 16 15 15 14
17 17 17 17 17 17 17 17 17 17 18 18 17 17 18 18 18 18 19 20 19 19 19 19 19 19 18 18 18 18 18 18 18 18 17 17 17 16 16 16 15 14 15
15 15 15 16 16 17 17 17 17 16 16 17 17 17 17 17 18 19 19 19 19 18 19 19 19 19 18 18 18 18 18 18 18 17 17 17 17 16 16 16 16 15 15
15 15 15 15 15 15 16 17 17 17 17 17 17 17 17 17 17 17 20 19 19 18 19 19 19 19 19 18 18 18 18 18 18 17 17 17 17 17 16 16 16 16 15
13 14 14 14 14 14 15 15 16 16 17 17 17 17 17 17 17 17 21 19 19 19 19 19 19 19 19 19 19 18 18 18 18 17 17 17 17 16 16 16 15 16 16
11 11 11 12 13 13 13 14 14 15 16 17 16 16 16 16 16 16 19 19 17 19 19 19 19 19 19 19 19 19 18 17 17 17 17 17 17 17 16 16 16 16 16
6 7 7 8 8 8 10 11 12 13 15 16 16 16 16 15 15 15 15 16 17 19 19 19 21 19 17 17 19 19 19 18 17 17 17 17 17 16 16 16 16 15 15
5 5 6 7 7 7 8 9 9 11 14 15 16 16 15 16 19 18 16 16 15 17 19 21 19 19 17 18 19 19 19 18 18 17 17 16 16 16 16 15 15 14 15
4 4 5 5 6 6 7 7 8 9 10 13 14 16 18 17 17 16 15 16 16 15 17 19 18 19 17 19 18 19 19 19 18 17 17 16 16 15 15 15 14 14 14
3 3 3 3 4 4 5 6 7 8 9 10 12 14 15 16 16 15 17 16 15 16 17 16 17 17 17 17 16 18 18 18 18 18 17 16 16 15 15 15 14 14 14
2 2 2 2 2 3 4 4 5 6 8 9 10 11 13 16 16 16 15 17 17 16 15 16 16 17 17 16 16 17 19 18 18 18 17 16 16 15 15 15 14 14 14
0 1 1 1 1 2 2 3 4 5 6 7 9 10 11 12 15 16 17 18 19 19 17 17 17 17 17 16 15 15 18 18 18 18 17 17 16 15 15 15 15 14 14
-1 -0 -0 -0 0 1 2 2 3 4 6 7 8 9 10 11 13 15 15 16 17 19 18 18 17 17 16 15 14 14 16 17 17 18 17 16 16 14 14 14 14 14 14
-1 -1 -1 -1 -0 0 0 1 2 3 3 4 6 7 9 10 11 13 15 15 15 16 19 18 18 16 16 16 14 14 16 17 16 17 17 16 16 16 14 14 14 14 14
-2 -2 -2 -1 -1 -1 -1 -0 0 1 2 3 4 5 7 10 11 12 14 14 14 15 17 18 18 18 16 15 14 13 15 16 13 15 16 17 15 16 15 15 14 14 14
-3 -3 -2 -2 -2 -1 -1 -1 -0 1 1 2 4 5 6 9 11 12 13 13 13 14 14 16 17 17 16 15 14 13 13 13 13 13 15 15 15 15 14 14 15 14 14
-4 -4 -3 -3 -2 -2 -2 -2 -1 -0 0 1 2 2 4 4 8 12 13 13 13 13 13 14 15 15 15 14 14 13 13 13 13 13 14 14 14 14 13 14 15 14 13
-4 -4 -4 -4 -3 -3 -3 -2 -2 -2 -1 -1 -1 0 1 0 1 2 6 11 13 13 13 13 14 15 13 13 13 13 12 13 13 13 13 14 13 13 14 14 14 14 13
-5 -5 -5 -4 -4 -4 -3 -3 -2 -2 -2 -2 -2 -2 -2 -2 -2 -1 1 4 7 12 13 13 13 13 12 12 12 13 12 12 12 12 12 13 13 13 14 13 13 13 13
-5 -5 -5 -5 -5 -4 -4 -4 -3 -3 -3 -3 -3 -3 -3 -3 -3 -1 -0 0 2 5 13 13 13 13 13 12 13 13 13 12 12 12 12 13 12 13 12 12 13 13 14
-6 -6 -6 -6 -5 -5 -4 -5 -4 -4 -4 -4 -4 -4 -4 -4 -3 -2 -1 -1 -0 -1 0 11 14 13 13 13 13 13 12 11 11 11 11 11 12 12 12 12 13 12 12
-7 -7 -7 -7 -6 -5 -5 -6 -5 -5 -5 -5 -5 -5 -4 -4 -4 -4 -2 -2 -2 -0 -1 -1 1 9 9 13 14 13 12 12 12 12 11 10 11 11 11 12 12 12 12
-8 -8 -8 -7 -7 -6 -6 -6 -6 -6 -6 -6 -6 -5 -5 -5 -5 -5 -5 -4 -4 -4 -2 -2 -1 -0 -0 3 5 12 12 12 10 11 9 7 8 8 10 10 11 11 12
-8 -8 -9 -9 -8 -8 -6 -6 -7 -7 -7 -7 -7 -7 -6 -6 -5 -5 -5 -5 -5 -5 -4 -3 -3 -2 -1 1 4 8 11 9 3 6 8 10 5 5 6 7 7 8 9
-9 -9 -9 -10 -9 -9 -8 -7 -8 -8 -8 -8 -8 -8 -7 -7 -6 -6 -6 -6 -5 -5 -5 -4 -4 -3 -2 -1 1 0 0 5 6 2 7 8 3 5 1 3 4 5 7

GFSMA_925_temp_126.txt.gz
Temp
19 19 18 18 18 19 19 20 19 20 20 20 20 21 21 21 22 22 22 21 20 19 19 19 19 19 19 19 19 18 18 18 18 18 17 17 18 17 17 16 17 16 15
18 18 18 18 18 18 18 18 18 19 19 18 19 20 20 21 21 21 22 21 20 20 19 19 19 19 19 19 19 19 19 18 18 18 17 17 17 17 16 16 16 16 14
17 18 18 18 18 18 18 18 18 18 18 18 18 18 19 19 20 21 21 21 21 20 19 19 19 19 19 19 18 19 19 18 18 18 18 17 17 17 16 16 15 16 15
15 15 16 17 17 17 17 17 18 18 18 17 17 17 18 18 19 19 19 19 21 22 20 20 20 20 19 19 19 18 18 18 18 18 18 17 17 17 16 16 15 16 15
12 13 15 15 14 15 16 17 17 17 17 17 17 17 17 17 18 18 18 18 19 19 20 20 20 20 19 19 19 19 19 18 18 18 17 17 17 17 17 16 15 16 15
10 12 14 14 13 15 16 16 15 16 16 17 17 17 17 17 17 17 17 17 18 18 18 19 20 19 20 19 19 19 19 18 18 18 18 17 17 17 17 16 16 15 15
9 10 12 12 13 14 15 15 16 17 17 17 16 17 17 17 16 17 16 18 16 17 18 17 19 19 20 19 19 19 19 18 18 18 18 18 17 17 17 16 16 16 15
8 8 7 8 8 9 10 12 14 15 17 17 16 16 16 16 15 16 17 17 16 16 17 18 18 18 19 21 19 19 19 19 18 18 18 18 17 17 17 16 16 16 16
6 5 5 6 6 7 8 8 9 10 14 17 16 18 17 18 21 18 16 15 16 17 17 17 17 18 18 19 20 19 20 20 19 18 18 18 18 17 17 16 16 16 16
4 4 4 4 5 5 6 7 8 8 9 11 15 15 17 20 21 21 20 18 17 18 18 18 19 19 19 19 19 20 20 20 19 18 18 18 18 17 16 16 16 16 15
4 3 3 3 4 4 4 5 5 6 7 9 10 14 15 17 17 19 21 21 20 19 19 18 19 19 20 20 19 19 19 19 19 19 18 18 18 17 17 16 16 16 15
3 3 2 2 3 3 3 4 4 5 6 7 8 10 11 14 19 19 20 21 22 21 20 20 20 18 19 20 19 20 19 18 18 19 18 18 17 17 17 16 15 15 15
1 1 1 1 2 2 2 3 3 4 5 6 7 8 9 10 12 14 15 20 22 21 21 20 21 20 20 20 20 19 18 18 18 19 18 18 17 17 17 16 16 15 15
0 -0 0 0 1 1 1 2 2 4 5 5 5 6 7 9 10 12 15 17 19 21 21 21 21 21 20 21 20 19 18 17 16 17 19 18 17 17 17 16 16 15 15
-1 -1 -1 -0 -0 -0 0 1 1 2 3 3 4 5 5 6 7 9 11 14 16 18 20 21 20 20 21 21 20 19 18 17 16 16 18 18 17 18 17 17 16 15 15
-2 -2 -2 -1 -1 -1 -1 -0 0 1 1 2 3 4 5 5 6 7 10 11 14 16 18 19 19 19 20 20 20 19 17 16 16 16 17 18 19 18 16 16 16 15 15
-2 -2 -2 -2 -2 -1 -1 -1 -1 -0 -0 0 0 1 3 2 3 4 8 11 13 14 16 17 18 18 18 18 19 18 17 16 16 15 15 15 16 16 16 16 16 16 14
-2 -2 -2 -2 -2 -2 -2 -1 -1 -1 -1 -1 -1 -0 -1 -1 0 1 2 4 7 13 14 15 15 16 16 17 17 17 16 15 15 16 14 13 13 14 14 15 15 16 14
-2 -3 -3 -2 -2 -2 -2 -2 -2 -2 -2 -2 -2 -2 -2 -2 -2 -1 0 2 4 5 8 13 14 14 14 15 16 16 16 15 13 13 13 13 13 13 14 14 14 15 14
-2 -3 -3 -2 -2 -2 -3 -3 -2 -2 -2 -2 -3 -3 -3 -3 -2 -2 -0 0 1 2 4 6 12 15 14 14 15 15 14 13 13 13 13 13 13 13 13 13 13 13 12
-3 -3 -2 -2 -2 -3 -5 -4 -2 -2 -2 -3 -3 -3 -3 -3 -3 -3 -3 -2 -2 -1 1 2 6 9 14 13 14 14 13 13 12 12 12 12 13 12 13 13 13 12 12
-4 -4 -4 -3 -3 -4 -5 -5 -4 -3 -4 -4 -4 -4 -3 -4 -4 -3 -4 -4 -4 -3 -3 -1 1 1 2 2 7 13 13 13 12 12 12 12 12 12 12 13 13 13 13
-5 -6 -5 -5 -5 -5 -6 -6 -5 -5 -5 -5 -5 -5 -5 -5 -5 -4 -3 -4 -4 -4 -4 -3 -3 -2 -2 -2 -2 1 9 13 13 14 11 12 11 11 11 12 13 13 12
-6 -7 -7 -6 -6 -7 -7 -7 -5 -5 -5 -6 -6 -6 -6 -6 -6 -5 -4 -4 -4 -5 -4 -4 -4 -4 -4 -4 -3 -2 1 4 12 12 11 10 10 10 11 11 11 12 12
-6 -7 -7 -8 -7 -7 -7 -8 -7 -5 -6 -6 -6 -7 -8 -7 -7 -7 -6 -6 -5 -5 -5 -5 -4 -4 -4 -4 -4 -2 -1 1 6 9 10 10 7 8 8 9 10 10 11
-7 -7 -7 -8 -8 -8 -8 -8 -8 -7 -6 -6 -6 -7 -9 -8 -8 -8 -8 -7 -7 -7 -6 -6 -5 -4 -5 -5 -4 -4 -4 -1 1 2 4 6 5 6 2 6 7 8 8

GFSMA_925_temp_129.txt.gz
Temp
20 20 20 19 20 20 20 20 20 20 20 20 21 22 23 23 23 24 25 23 23 21 20 20 20 19 19 19 19 19 18 18 18 18 18 18 18 17 17 17 17 17 17
18 18 19 19 19 19 19 19 19 20 19 19 19 20 21 22 22 23 24 22 22 22 21 20 20 20 19 19 19 19 18 18 18 18 18 17 17 17 17 17 16 16 16
16 17 17 17 17 18 18 18 19 19 19 19 19 20 20 20 20 21 22 23 21 22 21 20 20 20 19 19 19 19 19 19 18 18 18 18 17 17 17 17 16 15 16
14 14 15 16 16 16 16 17 17 19 19 18 19 18 19 19 19 20 20 22 22 22 22 21 21 20 19 19 20 20 19 19 19 18 18 18 18 18 17 17 17 16 15
12 13 15 16 15 15 16 16 16 16 17 18 17 18 18 18 19 19 19 20 20 21 21 20 21 20 20 19 20 19 19 19 19 19 18 18 18 18 17 16 16 16 15
11 12 15 15 15 16 17 17 17 17 16 16 16 17 17 18 18 18 18 18 17 17 18 19 19 19 20 19 19 20 19 19 19 19 18 18 18 17 17 17 16 16 16
10 10 10 11 11 12 12 13 15 16 17 18 16 17 17 17 18 17 17 15 17 18 19 17 20 18 19 20 19 19 20 19 19 19 19 18 18 18 17 17 16 16 16
8 7 7 7 8 8 9 9 10 11 14 17 18 17 17 18 17 16 16 16 16 18 20 18 18 18 18 19 20 19 19 19 19 18 19 19 18 18 17 17 17 16 16
7 6 6 6 6 7 7 8 8 9 10 12 14 17 17 19 21 17 16 16 16 17 16 16 17 17 18 18 19 20 20 20 19 18 18 18 18 18 18 17 17 17 16
7 5 5 5 5 5 6 6 7 7 7 9 10 14 16 17 16 19 19 16 16 16 16 17 17 18 18 18 19 20 20 20 19 19 18 18 18 18 18 17 17 17 16
6 5 4 4 4 4 4 5 5 5 6 7 8 9 11 14 15 17 18 21 20 17 17 17 18 19 19 18 18 19 19 20 20 20 19 18 19 19 18 17 17 17 17
5 3 3 3 3 3 3 3 4 4 5 6 7 8 9 10 13 15 16 17 19 20 21 20 20 19 19 19 19 20 20 20 19 20 20 18 18 19 18 18 17 17 16
1 1 1 2 2 2 2 2 3 3 4 5 6 6 7 8 9 10 12 14 16 18 20 22 21 21 20 19 19 20 20 20 19 19 19 19 18 18 18 18 17 17 16
0 0 -0 0 0 1 1 1 2 3 3 3 4 5 5 6 6 7 9 11 13 17 19 20 21 22 22 22 21 20 20 20 20 19 18 19 18 18 17 17 17 17 17
-0 -0 -0 -0 -0 0 1 1 1 2 1 2 2 3 4 5 5 6 6 8 10 12 16 19 20 21 21 21 21 21 21 19 19 19 18 17 17 17 17 17 17 17 17
-1 -1 -1 -0 -0 0 -0 0 0 0 0 -0 0 1 1 0 1 2 3 4 6 11 13 15 18 18 20 20 20 20 20 20 19 19 18 17 17 16 16 16 17 17 17
-1 -1 -1 -1 -0 -0 -0 -0 -0 -1 -1 -1 -1 -1 -1 -1 -1 0 1 2 3 6 10 13 15 17 17 18 19 19 18 18 19 18 17 17 16 16 16 16 16 17 17
-2 -2 -1 -1 -1 -1 -1 -1 -1 -1 -1 -2 -2 -2 -2 -2 -2 -2 -1 1 2 3 5 7 11 15 16 17 17 17 17 17 18 17 17 17 17 16 15 15 15 15 16
-0 -1 -0 -0 -1 -2 -2 -1 -0 -0 -1 -2 -2 -2 -3 -3 -2 -2 -1 -1 -0 0 2 4 6 9 12 14 15 16 15 16 16 16 16 17 16 16 15 15 15 15 15
-0 -0 0 -0 -1 -2 -4 -2 -1 -1 -1 -2 -2 -2 -3 -3 -3 -3 -2 -3 -2 -2 -0 1 4 6 6 8 10 12 13 16 16 16 15 14 15 14 14 13 13 13 13
-1 -2 -1 -1 -2 -3 -5 -4 -2 -1 -2 -2 -3 -2 -3 -4 -4 -3 -3 -3 -4 -3 -2 -1 0 0 1 0 1 0 2 4 11 15 14 13 14 13 13 13 13 13 13
-3 -3 -2 -3 -4 -4 -6 -5 -3 -3 -4 -4 -4 -4 -3 -5 -5 -3 -3 -3 -4 -4 -4 -3 -2 -2 -2 -3 -2 -2 -0 2 6 13 14 13 12 12 11 12 13 13 13
-4 -5 -5 -4 -5 -6 -7 -6 -4 -4 -4 -4 -5 -6 -5 -6 -6 -5 -3 -3 -4 -4 -4 -4 -3 -4 -4 -4 -4 -3 -2 -1 1 3 5 12 12 11 12 12 12 14 14
-5 -6 -6 -6 -6 -7 -7 -7 -5 -4 -5 -5 -6 -7 -7 -7 -7 -7 -5 -5 -5 -5 -5 -4 -4 -4 -4 -4 -4 -4 -2 -3 -0 3 5 8 12 11 11 12 12 12 13
-5 -6 -6 -7 -7 -7 -8 -8 -6 -4 -5 -6 -6 -7 -9 -9 -8 -8 -7 -7 -7 -6 -5 -5 -5 -5 -5 -4 -4 -4 -4 -3 -2 0 -1 -2 6 9 11 11 11 11 11
-6 -5 -6 -7 -7 -8 -8 -8 -9 -7 -6 -6 -6 -7 -9 -9 -9 -9 -9 -8 -8 -7 -6 -6 -5 -5 -5 -5 -5 -5 -4 -3 -3 -1 -2 -4 0 2 3 8 10 10 10

GFSMA_925_temp_132.txt.gz
Temp
19 19 19 19 20 20 20 20 20 20 20 20 20 21 21 21 22 22 23 24 24 23 23 22 21 20 20 19 19 19 18 18 18 18 18 18 18 17 17 17 17 17 17
17 18 17 18 18 18 18 19 20 20 20 20 20 21 21 22 22 23 23 23 22 22 23 22 22 20 20 19 19 19 19 18 18 18 18 18 18 17 17 17 17 16 16
15 15 16 16 17 17 18 18 17 18 19 20 20 21 21 21 21 22 22 23 22 22 22 22 22 21 20 19 19 19 19 19 18 18 18 18 18 18 17 17 17 17 16
13 14 15 16 16 16 17 17 18 18 18 17 18 17 18 18 19 21 21 22 22 21 21 20 21 22 21 20 19 19 19 19 19 18 18 18 18 18 17 17 17 17 17
12 13 14 14 14 15 16 16 16 16 16 16 17 17 18 18 17 16 17 19 21 21 19 19 19 19 19 20 20 19 19 19 19 19 19 18 18 18 17 17 17 17 17
10 10 11 11 11 12 12 13 13 14 15 16 17 17 17 18 18 18 18 17 18 18 15 15 17 18 18 19 19 19 19 18 19 19 19 18 18 18 18 17 17 17 17
8 8 7 8 8 9 9 9 10 10 12 13 14 16 17 17 18 18 19 18 17 17 16 17 18 18 18 19 19 20 19 18 18 18 19 19 18 18 18 18 17 17 16
7 7 6 6 6 7 7 7 8 8 9 10 11 13 15 17 19 18 18 18 17 18 18 18 17 17 17 18 19 20 20 19 19 18 18 18 19 18 18 18 17 17 17
7 6 5 5 5 5 6 6 6 6 7 8 9 11 13 14 14 17 17 17 17 16 16 16 16 16 17 17 19 19 20 19 19 19 18 18 19 19 18 18 17 17 17
6 5 4 4 4 4 5 5 5 5 6 7 8 10 9 10 13 14 17 16 18 17 16 15 15 16 17 17 18 18 19 19 20 19 19 18 18 18 18 18 18 17 17
4 3 3 3 3 3 3 4 4 4 5 5 6 7 8 10 10 12 13 15 14 16 16 18 16 16 16 17 17 17 19 19 19 20 19 18 18 18 18 18 18 18 17
2 1 1 1 2 2 2 2 3 3 4 5 5 6 7 8 9 10 11 11 12 13 14 15 17 18 18 17 17 17 18 18 19 19 20 19 19 18 19 18 18 18 17
1 0 0 0 1 1 1 2 2 3 3 3 3 4 4 5 6 7 8 10 11 12 12 14 16 17 18 18 20 19 19 18 18 19 19 20 19 19 19 19 18 18 17
0 -0 0 0 0 0 0 1 1 1 1 1 2 2 2 3 4 5 6 7 8 9 11 13 14 15 18 18 17 19 19 19 19 19 19 19 19 19 19 19 19 18 18
-0 -1 -0 -0 -0 0 0 0 0 -0 -0 -0 -0 0 0 0 1 2 2 3 5 7 9 11 12 13 14 16 17 18 19 19 19 19 19 19 19 19 19 19 18 18 18
-1 -1 -1 -1 -1 -1 -0 -0 -0 -1 -1 -1 -1 -1 -2 -1 -1 -0 0 1 2 4 6 8 9 11 12 14 15 17 17 19 19 18 19 19 19 19 18 18 18 17 18
-1 -0 -0 -1 -2 -2 -1 -1 -1 -1 -1 -1 -2 -2 -2 -2 -2 -2 -1 0 1 2 4 5 6 8 10 11 12 14 15 17 18 18 18 18 18 18 18 17 17 16 16
-0 0 0 -1 -2 -2 -2 -2 -1 -1 -1 -1 -2 -2 -3 -3 -2 -2 -2 -2 -1 -0 1 3 4 5 7 8 8 10 12 14 15 16 18 17 16 17 17 17 16 16 15
-0 -0 -1 -1 -3 -3 -3 -2 -1 -1 -2 -2 -2 -3 -4 -4 -3 -2 -2 -3 -3 -2 -1 0 2 2 3 3 5 7 9 10 12 14 14 15 16 17 17 17 17 16 15
-1 -1 -2 -3 -4 -5 -4 -4 -2 -2 -2 -3 -3 -3 -4 -5 -4 -3 -3 -3 -3 -2 -2 -1 -1 -0 -1 -1 -1 -1 1 3 5 11 13 13 15 16 16 16 16 16 15
-3 -2 -3 -4 -5 -6 -6 -5 -2 -3 -3 -4 -5 -4 -5 -6 -5 -4 -3 -4 -4 -4 -3 -2 -2 -2 -2 -3 -3 -3 -2 -1 2 5 8 12 10 13 15 15 15 15 14
-5 -5 -4 -5 -7 -6 -6 -5 -3 -4 -5 -6 -7 -7 -6 -7 -7 -5 -5 -5 -5 -5 -4 -3 -3 -3 -3 -3 -3 -3 -3 -1 0 2 0 2 4 9 11 12 13 13 13
-6 -6 -6 -6 -7 -7 -7 -6 -4 -5 -6 -7 -8 -9 -8 -8 -8 -7 -7 -7 -6 -5 -5 -4 -4 -4 -4 -4 -4 -3 -3 -3 -2 -1 -2 2 4 4 6 9 11 12 12
-6 -6 -7 -7 -8 -7 -7 -7 -6 -6 -6 -7 -8 -9 -9 -9 -8 -8 -9 -8 -8 -7 -6 -5 -5 -5 -5 -5 -5 -4 -4 -3 -2 -1 -3 -2 0 -0 3 7 8 11 12
-5 -6 -7 -7 -8 -8 -8 -8 -7 -7 -7 -7 -8 -9 -9 -8 -8 -8 -9 -9 -9 -8 -7 -6 -6 -6 -6 -6 -6 -5 -5 -4 -3 -2 -3 -4 -2 -2 -0 5 5 6 8
-5 -5 -7 -7 -8 -9 -8 -8 -9 -9 -8 -9 -9 -9 -9 -8 -8 -8 -9 -10 -10 -9 -8 -8 -8 -8 -8 -8 -7 -7 -6 -5 -4 -3 -3 -4 -4 -4 -2 2 3 4 4

GFSMA_925_temp_135.txt.gz
Temp
18 18 18 18 18 19 19 19 19 19 19 19 20 20 20 20 20 21 21 21 22 22 22 22 22 22 21 20 19 19 18 18 18 18 18 18 18 17 17 17 17 17 17
16 17 17 17 17 17 18 18 18 18 19 18 19 18 18 18 18 19 21 22 21 22 22 22 22 22 21 21 20 19 19 18 18 18 18 18 18 18 17 17 17 17 17
13 16 16 15 15 16 17 17 17 18 18 18 18 18 18 18 18 17 17 16 17 20 21 22 22 22 21 21 20 19 19 19 18 18 18 18 18 18 17 17 17 17 16
13 13 13 13 14 15 15 15 14 15 15 15 16 17 17 18 18 19 19 17 17 17 19 20 20 21 21 21 20 20 19 19 19 18 18 18 18 18 18 17 17 17 17
11 11 11 10 12 13 13 12 13 12 13 14 14 16 17 17 18 19 19 17 17 17 16 17 17 18 19 20 20 20 19 19 19 18 18 18 18 18 18 17 17 17 17
9 9 9 9 10 10 10 10 10 11 11 10 13 15 16 17 17 18 18 18 18 19 17 18 16 14 14 17 18 19 18 19 19 18 18 18 18 18 17 17 17 17 17
7 7 6 6 7 7 7 7 7 7 9 9 11 12 16 18 18 18 17 17 18 17 17 18 18 19 17 16 17 18 18 18 18 19 18 18 18 18 18 17 17 17 17
6 6 5 5 5 5 6 6 6 6 7 7 9 9 11 14 15 16 16 16 17 18 17 16 16 17 16 15 16 18 18 18 18 18 20 18 18 18 18 18 17 17 17
4 4 4 4 4 4 4 4 5 5 6 7 7 8 10 10 10 14 15 15 15 15 16 17 17 16 15 15 15 16 18 18 19 19 19 19 18 18 18 18 18 18 17
3 3 2 3 3 3 3 3 4 4 5 6 7 8 8 8 10 10 13 13 14 13 13 13 14 15 15 15 16 15 18 18 19 19 19 19 18 18 18 18 18 18 17
1 1 1 1 1 2 2 2 2 3 4 4 5 6 7 8 9 9 11 10 11 12 12 12 13 14 15 15 15 15 16 18 19 19 20 19 19 18 18 18 18 18 18
1 1 0 1 1 1 1 1 2 2 3 3 3 4 5 6 7 8 9 9 9 10 11 11 12 13 14 15 15 16 16 16 17 18 18 18 18 18 18 19 18 18 18
-0 -0 0 0 0 1 1 1 1 1 1 1 2 2 2 4 4 5 6 7 8 8 9 10 11 11 12 13 14 14 15 15 15 17 17 17 17 17 19 19 18 18 18
-0 -0 -0 -0 -0 -0 0 0 0 0 -0 0 0 0 0 1 1 2 3 4 5 7 8 9 9 11 10 11 12 13 14 15 15 16 17 17 18 17 18 19 19 18 19
-0 -0 -1 -1 -1 -1 -1 -0 -1 -1 -1 -1 -1 -1 -1 -1 -1 -0 0 1 3 5 5 8 8 8 8 8 10 12 13 14 14 17 18 18 18 18 17 18 18 19 19
-0 -0 -1 -2 -2 -1 -1 -1 -1 -1 -1 -1 -2 -2 -2 -2 -2 -1 -1 -0 1 2 4 4 4 5 5 7 7 10 11 13 13 14 15 16 18 18 18 18 18 18 18
0 -0 -2 -2 -2 -2 -2 -1 -1 -2 -2 -2 -3 -3 -3 -3 -2 -2 -2 -2 -1 -1 1 1 2 4 3 2 5 7 9 11 12 13 14 15 15 15 16 16 18 18 18
-1 -2 -3 -3 -3 -3 -2 -2 -2 -2 -3 -3 -4 -5 -5 -4 -3 -2 -2 -3 -2 -2 -1 0 1 0 0 -1 -0 2 4 5 10 11 13 13 14 15 15 15 14 16 16
-2 -3 -4 -5 -4 -4 -3 -3 -3 -4 -4 -5 -4 -6 -6 -5 -4 -3 -3 -4 -3 -3 -2 -1 -1 -1 -2 -2 -2 -1 0 4 6 8 9 11 13 14 14 13 14 16 16
-3 -5 -5 -6 -6 -5 -4 -3 -4 -5 -5 -6 -7 -7 -7 -6 -5 -5 -4 -4 -4 -4 -3 -2 -2 -2 -2 -3 -2 -2 -2 -1 3 3 7 7 9 11 11 12 13 13 14
-5 -6 -6 -7 -7 -6 -5 -4 -5 -6 -7 -8 -8 -8 -8 -7 -7 -6 -6 -6 -5 -5 -4 -3 -4 -3 -4 -4 -4 -3 -2 -2 1 0 -1 2 5 5 7 9 9 9 10
-6 -6 -7 -8 -7 -7 -6 -5 -6 -7 -8 -9 -9 -9 -8 -8 -8 -8 -7 -7 -7 -6 -5 -5 -4 -5 -5 -5 -5 -4 -4 -3 -1 -1 -3 0 1 2 3 5 6 7 7
-6 -7 -7 -8 -7 -7 -7 -6 -6 -7 -8 -9 -9 -9 -8 -8 -8 -9 -9 -8 -8 -7 -7 -6 -6 -7 -6 -6 -6 -5 -5 -4 -3 -3 -3 -1 -2 -3 1 3 3 3 5
-7 -7 -8 -8 -8 -7 -8 -7 -8 -8 -9 -9 -9 -8 -8 -8 -8 -10 -10 -9 -9 -9 -8 -8 -8 -8 -8 -7 -7 -7 -6 -5 -4 -3 -4 -4 -3 -4 -2 1 1 2 1
-7 -8 -8 -8 -8 -8 -8 -9 -8 -9 -9 -9 -9 -8 -8 -8 -8 -9 -11 -11 -11 -10 -10 -9 -9 -9 -10 -9 -8 -8 -8 -6 -6 -4 -5 -5 -4 -4 -3 -1 0 0 -0
-7 -8 -9 -9 -9 -8 -8 -8 -9 -9 -9 -9 -9 -9 -8 -8 -8 -9 -11 -11 -12 -11 -11 -11 -11 -10 -10 -10 -10 -9 -9 -8 -7 -6 -6 -6 -5 -5 -4 -3 -3 -2 -2